Regional Weather Roundup
Issued by NWS

Home | Current Version | Previous Version | Graphics & Text | Print | Product List | Glossary On
Versions: 1 2 3 4 5 6 7 8 9 10 11 12 13 14 15 16 17 18 19 20 21 22 23 24 25 26 27 28 29 30 31 32 33 34 35 36 37 38 39 40 41 42 43 44 45 46 47 48 49 50
357
ASUS45 KSLC 212010
RWRUT

UTAH REGIONAL WEATHER ROUNDUP
NATIONAL WEATHER SERVICE SALT LAKE CITY UT
200 PM MDT SAT OCT 21 2017

UTZ001>011-023>025-212100-

NORTHERN UTAH

CITY           SKY/WX    TMP DP  RH WIND       PRES   REMARKS
BRIGHAM CITY   PTSUNNY   49  20  31 S9        30.23S
HILL AFB       MOSUNNY   46  23  40 W6        30.22F
LOGAN          MOSUNNY   49  24  37 VRB3      30.20F
OGDEN          MOSUNNY   48  24  39 SW8       30.22F
SALT LAKE CITY PTSUNNY   53  21  28 N7        30.23F
TOOELE VALLEY  SUNNY     52  23  32 E6        30.23S
WENDOVER       SUNNY     49  21  33 SE6       30.22F
HEBER CITY       N/A     46  18  31 CALM      30.19
WEST JORDAN    MOSUNNY   48  24  39 E7        30.24S

$$

UTZ011>015-024>027-212100-

CENTRAL/NORTHEAST UTAH

CITY           SKY/WX    TMP DP  RH WIND       PRES   REMARKS
PROVO AIRPORT  MOSUNNY   49  20  31 CALM      30.24F
MOAB/CANYONLAN SUNNY     55  10  16 W15G23    30.17R
DELTA          SUNNY     48  16  27 W5        30.24F
PRICE          SUNNY     50  14  23 W14G20    30.17F
ROOSEVELT      SUNNY     54  14  20 SW15      30.17F
VERNAL         SUNNY     50   9  19 SW7       30.16F

$$

UTZ013>016-019>022-027-212100-

SOUTHERN UTAH

CITY           SKY/WX    TMP DP  RH WIND       PRES   REMARKS
BRYCE CANYON   SUNNY     46  11  24 N6        30.23F
CEDAR CITY     SUNNY     54  12  18 N8        30.22S
MILFORD        SUNNY     53  16  23 N9        30.23F
ST GEORGE      CLEAR     63  17  17 W9        30.18F
HANKSVILLE     SUNNY     54  14  20 SE6       30.21F
BLANDING         N/A     53   3  13 NW9       30.24F

$$

REGIONAL REPORTS     COLORADO/ARIZONA

CITY           SKY/WX    TMP DP  RH WIND       PRES   REMARKS
CRAIG, CO      SUNNY     38  25  59 SW12      30.17S WCI  30
GRAND JUNCTION SUNNY     53  15  22 NW7       30.16F
RIFLE, CO      SUNNY     48  18  30 VRB5      30.16F
MONTROSE, CO   SUNNY     50   9  19 CALM      30.18F
CORTEZ, CO     SUNNY     55   3  12 NW13      30.15F
COLORADO CITY    N/A     61  14  16 W5        30.22S
PAGE, AZ       SUNNY     59  16  18 N7        30.18F
GRAND CANYON   SUNNY     59   6  12 W5        30.21S
KINGMAN, AZ    SUNNY     69  12  11 N13       30.16F
FLAGSTAFF, AZ  SUNNY     58  16  19 VRB6      30.20F

$$

REGIONAL REPORTS    NEVADA/IDAHO/WYOMING

CITY           SKY/WX    TMP DP  RH WIND       PRES   REMARKS
LAS VEGAS, NV  MOSUNNY   69  15  12 VRB7      30.17F
ELY, NY        SUNNY     49  11  21 VRB3      30.23F
ELKO, NV       PTSUNNY   49  18  29 SW15G24   30.21F
POCATELLO, ID  CLOUDY    45  23  42 SW16G26   30.19F
BURLEY, ID     MOSUNNY   49  26  41 VRB3      30.16F
FORT BRIDGER,  CLOUDY    42  16  34 W25G33    30.19F
EVANSTON, WY   PTSUNNY   39  17  41 W16G30    30.18F WCI  30
ROCK SPRINGS,  MOSUNNY   41  12  30 W22G33    30.13S
KEMMERER, WY   MOSUNNY   37  14  38 W22G28    30.15S WCI  27

$$




USA.gov is the U.S. government's official web portal to all federal, state and local government web resources and services.